Location: Newark
(45.8667°N, 9.7333°E)
Time: 03:28:01
(UTC+00:00)

Transit 4A - Pass Details

Date: 01 February 2020
Orbit: 872 x 973 km, 66.8° (Epoch: 17 February)

Event Time Altitude Azimuth Distance (km) Brightness Sun altitude
Rises 07:12:02 0° 281° (W) 3,509 10.3 3.5°
Reaches altitude 10° 07:16:04 10° 308° (NW) 2,553 9.6 4.2°
Maximum altitude 07:18:52 13° 336° (NNW) 2,304 9.5 4.6°
Drops below altitude 10° 07:21:39 10° 5° (N) 2,538 10.0 5.0°
Sets 07:25:39 0° 32° (NNE) 3,472 10.9 5.6°
